EHI
0 0 0 0 0 0 0 0 0 0 0 0 0 0 0 0 0 0 0 0 0 0 0 0 0 0 0 0 0 0 0 0 0 0 0 0 0 0 0 0 0 0 0
0 0 0 0 0 0 0 0 0 0 0 0 0 0 0 0 0 0 0 0 0 0 0 0 0 0 0 0 0 0 0 0 0 0 0 0 0 0 0 0 0 0 0
0 0 0 0 0 0 0 0 0 0 0 0 0 0 0 0 0 0 0 0 0 0 0 0 0 0 0 0 0 0 0 0 0 0 0 0 0 0 0 0 0 0 0
0 0 0 0 0 0 0 0 0 0 0 0 0 0 0 0 0 0 0 0 0 0 0 0 0 0 0 0 0 0 0 0 0 0 0 0 0 0 0 0 0 0 0
0 0 0 0 0 0 0 0 0 0 0 0 0 0 0 0 0 0 0 0 0 0 0 0 0 0 0 0 0 0 0 0 0 0 0 0 0 0 0 0 0 0 0
0 0 0 0 0 0 0 0 0 0 0 0 0 0 0 0 0 0 0 0 0 0 0 0 0 0 0 0 0 0 0 0 0 0 0 0 0 0 0 0 0 0 0
0 0 0 0 0 0 0 0 0 0 0 0 0 0 0 0 0 0 0 0 0 0 0 0 0 0 0 0 0 0 0 0 0 0 0 0 0 0 0 0 0 0 0
0 0 0 0 0 0 0 0 0 0 0 0 0 0 0 0 0 0 0 0 0 0 0 0 0 0 0 0 0 0 0 0 0 0 0 0 0 0 0 0 0 0 0
0 0 0 0 0 0 0 0 0 0 0 0 0 0 0 0 0 0 0 0 0 0 0 0 0 0 0 0 0 0 0 0 0 0 0 0 0 0 0 0 0 0 0
0 0 0 0 0 0 0 0 0 0 0 0 0 0 0 0 0 0 0 0 0 0 0 0 0 0 0 0 0 0 0 0 0 0 0 0 0 0 0 0 0 0 0
0 0 0 0 0 0 0 0 0 0 0 0 0 0 0 0 0 0 0 0 0 0 0 0 0 0 0 0 0 0 0 0 0 0 0 0 0 0 0 0 0 0 0
0 0 0 0 0 0 0 0 0 0 0 0 0 0 0 0 0 0 0 0 0 0 0 0 0 0 0 0 0 0 0 0 0 0 0 0 0 0 0 0 0 0 0
0 0 0 0 0 0 0 0 0 0 0 0 0 0 0 0 0 0 0 0 0 0 0 0 0 0 0 0 0 0 0 0 0 0 0 0 0 0 0 0 0 0 0
0 0 0 0 0 0 0 0 0 0 0 0 0 0 0 0 0 0 0 0 0 0 0 0 0 0 0 0 0 0 0 0 0 0 0 0 0 0 0 0 0 0 0
0 0 0 0 0 0 0 0 0 0 0 0 0 0 0 0 0 0 0 0 0 0 0 0 0 0 0 0 0 0 0 0 0 0 0 0 0 0 0 0 0 0 0
0 0 0 0 0 0 0 0 0 0 0 0 0 0 0 0 0 0 0 0 0 0 0 0 0 0 0 0 0 0 0 0 0 0 0 0 0 0 0 0 0 0 0
0 0 0 0 0 0 0 0 0 0 0 0 0 0 0 0 0 0 0 0 0 0 0 0 0 0 0 0 0 0 0 0 0 0 0 0 0 0 0 0 0 0 0
0 0 0 0 0 0 0 0 0 0 0 0 0 0 0 0 0 0 0 0 0 0 0 0 0 0 0 0 0 0 0 0 0 0 0 0 0 0 0 0 0 0 0
0 0 0 0 0 0 0 0 0 0 0 0 0 0 0 0 0 0 0 0 0 0 0 0 0 0 0 0 0 0 0 0 0 0 0 0 0 0 0 0 0 0 0
0 0 0 0 0 0 0 0 0 0 0 0 0 0 0 0 0 0 0 0 0 0 0 0 0 0 0 0 0 0 0 0 0 0 0 0 0 0 0 0 0 0 0
0 0 0 0 0 0 0 0 0 0 0 0 0 0 0 0 0 0 0 0 0 0 0 0 0 0 0 0 0 0 0 0 0 0 0 0 0 0 0 0 0 0 0
0 0 0 0 0 0 0 0 0 0 0 0 0 0 0 0 0 0 0 0 0 0 0 0 0 0 0 0 0 0 0 0 0 0 0 0 0 0 0 0 0 0 0
0 0 0 0 0 0 0 0 0 0 0 0 0 0 0 0 0 0 0 0 0 0 0 0 0 0 0 0 0 0 0 0 0 0 0 0 0 0 0 0 0 0 0
0 0 0 0 0 0 0 0 0 0 0 0 0 0 0 0 0 0 0 0 0 0 0 0 0 0 0 0 0 0 0 0 0 0 0 0 0 0 0 0 0 0 0
0 0 0 0 0 0 0 0 0 0 0 0 0 0 0 0 0 0 0 0 0 0 0 0 0 0 0 0 0 0 0 0 0 0 0 0 0 0 0 0 0 0 0
0 0 0 0 0 0 0 0 0 0 0 0 0 0 0 0 0 0 0 0 0 0 0 0 0 0 0 0 0 0 0 0 0 0 0 0 0 0 0 0 0 0 0
Wind_Speed
2 1 1 1 2 2 2 2 2 3 3 3 2 2 2 2 2 2 2 4 4 3 2 3 3 4 4 4 5 5 5 5 5 5 5 4 4 3 3 3 3 4 3
2 1 1 1 1 1 1 2 2 2 2 2 2 2 1 1 1 1 1 2 4 3 2 2 2 2 3 3 3 4 4 4 3 3 3 3 4 3 2 2 1 2 2
2 1 1 0 0 1 1 2 2 2 2 2 2 2 1 1 1 1 1 1 1 2 2 1 1 1 1 2 2 3 3 3 2 2 2 2 2 2 2 2 1 1 0
1 1 1 0 0 1 1 1 2 2 2 2 1 2 1 1 1 0 0 0 0 1 2 2 1 1 1 0 2 2 2 2 2 1 1 1 0 0 1 1 1 1 1
1 1 1 0 1 1 1 1 2 1 1 2 1 1 1 1 1 0 0 0 0 0 0 2 2 2 3 2 2 2 2 2 2 2 1 1 1 1 1 2 2 2 2
1 1 1 0 1 1 1 1 1 1 1 1 1 1 1 1 0 0 1 0 0 0 0 1 1 2 3 3 3 3 3 3 3 3 3 2 2 2 2 3 2 3 3
1 1 1 1 1 1 1 1 1 1 1 1 1 1 2 1 0 0 0 0 0 0 0 0 0 0 1 3 4 4 5 5 4 4 4 4 4 4 4 4 4 4 4
1 1 1 1 0 1 1 1 1 1 0 1 1 1 1 2 2 1 1 0 1 1 1 1 1 1 1 1 3 5 5 5 6 5 5 5 5 6 6 5 5 5 5
1 1 1 1 1 1 2 2 1 2 1 1 0 2 2 2 2 2 2 1 1 1 1 2 2 2 2 2 2 4 5 6 6 6 6 6 6 7 7 7 7 7 6
1 2 2 2 1 1 2 2 2 2 2 2 1 1 1 2 2 2 3 2 2 2 2 2 2 3 3 2 3 4 5 6 7 8 7 7 8 8 9 9 8 8 8
2 2 2 2 2 2 2 2 2 2 2 2 2 1 1 1 1 2 3 3 3 2 2 3 3 3 3 2 2 4 6 7 8 9 9 9 9 9 9 10 10 10 9
2 2 2 2 2 2 2 2 2 2 2 2 2 2 2 2 2 2 3 3 3 3 3 3 3 3 2 2 3 5 6 7 8 9 10 10 10 10 10 10 10 11 11
2 3 2 2 2 3 3 2 3 2 3 3 3 3 2 2 2 2 2 2 3 3 3 2 3 2 2 2 3 5 5 7 8 10 11 11 10 10 10 11 11 11 10
3 3 3 3 3 3 3 3 3 3 3 4 4 4 3 3 2 2 2 2 2 3 3 4 2 3 2 2 4 5 4 8 9 10 11 11 10 10 10 10 10 11 11
2 3 3 4 3 3 3 3 3 4 4 4 4 4 4 3 2 3 2 3 3 3 4 3 2 2 2 2 4 4 4 8 10 10 11 11 11 11 10 11 11 11 11
3 3 3 4 4 4 4 3 3 3 4 4 4 4 4 3 3 3 3 3 3 4 5 4 3 3 3 4 7 5 5 9 10 11 11 11 11 11 10 11 11 11 11
3 4 4 4 4 4 4 4 4 4 5 4 4 5 5 5 4 3 3 3 4 3 6 5 3 3 4 4 5 4 5 5 5 10 11 11 11 11 11 11 11 11 12
3 4 4 4 4 4 4 5 5 5 5 5 5 5 5 4 5 4 4 5 4 4 5 6 4 3 4 5 5 5 6 5 5 9 11 11 11 11 11 11 11 11 12
3 3 3 4 4 4 4 4 4 5 5 5 5 6 6 5 6 4 4 5 4 5 4 4 5 3 3 3 4 5 6 5 6 7 9 10 11 12 12 12 12 12 12
3 3 3 3 4 4 4 4 4 4 5 5 5 5 6 6 7 6 5 5 5 5 4 4 5 4 4 3 3 4 5 4 5 5 8 9 10 12 13 13 13 13 13
3 3 3 3 3 3 4 4 4 5 5 5 5 5 6 7 8 7 6 5 5 5 4 5 5 4 4 3 4 4 5 5 5 5 4 5 5 5 6 10 11 13 13
2 1 2 3 4 4 6 7 6 4 4 5 5 5 6 7 8 10 10 9 8 7 6 6 6 6 6 5 4 4 5 5 5 2 3 6 5 6 6 6 11 14 14
1 1 2 2 4 5 8 8 8 5 4 5 5 4 4 5 7 5 7 9 9 10 10 7 8 8 7 5 5 6 6 6 7 4 4 7 5 7 6 7 13 14 14
1 2 2 2 3 5 8 8 8 4 3 4 5 5 5 5 6 6 5 5 6 7 8 7 7 7 7 6 6 7 7 7 6 5 4 6 5 5 6 6 11 13 13
2 2 2 2 3 5 7 8 7 2 3 4 4 5 5 6 9 9 6 6 6 6 7 9 9 9 10 11 8 4 4 5 6 5 3 5 5 5 5 6 7 10 11
2 2 3 3 3 4 6 7 7 2 3 4 4 5 8 8 9 9 6 6 7 6 5 6 7 7 7 7 9 6 5 5 5 5 3 3 4 3 5 4 4 4 5
Wind_Direction
104 79 57 47 29 20 25 21 22 28 31 32 35 54 52 43 37 24 3 21 35 62 91 103 111 118 117 111 106 103 101 94 87 81 81 78 73 78 89 88 87 82 77
127 115 81 50 37 25 21 29 28 36 26 29 24 26 32 39 37 23 7 0 19 37 74 106 108 121 135 132 124 111 105 101 102 96 87 80 71 65 70 76 77 78 78
130 136 129 85 31 31 33 38 35 41 33 26 17 7 19 27 21 356 352 358 350 11 31 72 75 89 143 151 151 139 126 119 115 117 109 93 79 57 48 47 45 44 55
118 129 134 134 66 62 52 54 44 45 28 11 358 345 350 347 336 329 19 56 15 343 346 11 19 10 0 237 199 187 174 161 156 146 138 126 104 20 5 343 334 345 340
98 107 132 145 110 88 63 56 41 51 39 1 334 330 336 324 304 327 174 165 164 279 312 351 359 354 345 321 269 238 227 206 200 209 212 233 254 259 274 301 298 288 290
98 103 100 88 110 110 73 61 50 38 41 332 336 336 320 305 283 239 250 217 152 147 55 18 349 331 335 327 301 267 244 234 234 243 246 250 260 264 266 273 280 275 274
126 124 112 83 113 148 153 132 79 67 38 22 47 1 341 333 347 305 295 37 333 292 244 247 259 296 306 321 322 298 266 253 248 248 251 261 267 269 265 269 265 275 270
154 156 134 148 152 150 138 136 96 114 52 49 114 93 346 334 331 309 283 236 276 319 311 281 249 246 266 277 304 311 289 269 259 254 252 258 267 271 266 268 267 273 275
176 168 176 169 191 182 186 188 178 166 186 263 147 147 155 229 299 303 282 262 267 281 288 290 271 260 256 257 271 289 294 280 264 259 258 258 262 268 275 272 272 272 276
191 180 179 184 195 203 201 208 199 208 185 202 245 253 192 171 184 292 300 287 280 273 277 292 285 274 259 249 261 281 286 287 270 261 263 262 264 267 270 273 272 275 274
213 200 189 191 201 211 215 220 217 222 209 205 204 216 241 265 196 190 261 288 300 269 264 265 261 260 268 255 246 269 286 281 276 269 266 268 267 270 273 275 274 274 277
233 221 210 204 207 212 217 221 224 226 225 223 220 210 195 200 207 204 229 253 272 278 274 255 247 252 258 264 273 294 293 287 281 279 270 268 270 272 274 275 276 276 277
232 227 226 222 219 223 225 222 225 235 225 221 223 227 226 232 223 214 222 247 268 285 279 261 240 243 258 265 271 289 290 294 287 282 276 270 274 277 276 274 273 274 276
229 225 220 224 225 225 228 226 230 234 228 224 230 229 230 237 233 220 213 212 261 280 269 261 265 233 238 263 284 290 277 287 289 286 284 279 275 276 276 274 274 275 276
233 221 219 222 225 226 225 225 232 233 228 230 232 231 235 237 238 235 226 209 205 243 261 250 255 249 262 271 287 281 270 283 286 288 287 285 278 273 273 272 272 273 274
224 218 222 221 225 227 225 226 242 237 230 235 233 231 238 242 245 241 232 228 222 226 250 248 253 272 282 291 293 290 283 289 285 283 285 284 280 272 271 272 273 273 274
218 218 224 224 228 231 229 228 236 237 238 242 241 236 238 235 236 241 237 231 231 229 249 266 266 273 268 276 287 283 277 271 268 278 281 283 282 276 272 273 274 275 275
226 225 226 229 233 238 234 231 234 235 235 239 243 243 244 240 235 235 233 233 235 235 238 260 270 269 264 264 269 277 284 284 271 276 278 280 282 279 271 272 275 278 277
230 229 226 234 238 238 234 233 236 239 240 241 241 241 246 242 243 238 237 237 236 245 241 249 265 265 267 267 276 279 277 275 277 274 276 276 277 278 273 271 272 273 273
229 230 233 237 243 246 243 241 239 241 245 247 246 245 246 242 243 240 242 242 238 242 247 250 261 265 263 259 251 264 277 272 276 276 274 275 275 277 275 268 268 270 271
241 237 236 248 251 247 244 247 242 240 244 248 250 249 251 254 254 250 247 242 237 239 244 249 259 265 262 255 250 254 268 280 278 262 262 263 264 261 265 266 267 266 267
252 259 259 257 259 256 262 260 254 242 245 247 252 252 253 258 262 264 262 258 250 240 237 241 251 256 259 256 259 265 271 279 279 249 255 267 261 261 258 252 261 266 267
271 273 269 268 269 265 262 262 261 253 243 246 250 254 260 262 266 259 266 270 268 265 256 247 249 253 255 252 253 261 261 266 267 268 279 273 258 262 261 264 268 265 267
262 261 267 267 275 277 272 268 269 261 251 251 248 248 254 262 260 261 257 260 261 265 263 253 249 254 255 252 243 252 259 270 275 267 256 265 261 265 274 263 267 266 267
285 276 276 272 272 280 278 274 274 260 255 261 258 252 253 255 262 265 258 259 264 268 275 268 266 270 273 274 268 258 257 262 274 272 246 254 268 278 276 269 263 265 268
283 288 290 284 275 276 278 280 277 265 261 265 264 258 258 261 265 263 255 253 259 262 269 276 278 279 275 275 275 255 245 248 262 270 244 241 260 281 287 268 262 267 270